Regional Weather Roundup
Issued by NWS Sterling, VA

Home | Current Version | Previous Version | Text Only | Print | Product List | Glossary Off
Versions: 1 2 3 4 5 6 7 8 9 10 11 12 13 14 15 16 17 18 19 20 21 22 23 24 25 26 27 28 29 30 31 32 33 34 35 36 37 38 39 40 41 42 43 44 45 46 47 48 49 50

000
ASUS41 KLWX 011310
RWRLWX

REGIONAL WEATHER ROUNDUP
NATIONAL WEATHER SERVICE BALTIMORE MD/WASHINGTON DC
900 AM EDT WED JUL 01 2015

Note: "FAIR" indicates few or no clouds below 12,000 feet
with no significant weather and/or obstructions to visibility.
 TC=TEMPERATURE CELSIUS

 * =Non NWS site. Station does not report precipitation (e.g. rain,
    snow, etc.), thunder, or fog.

DCZ001-MDZ009-015-VAZ040>042-051-053>054-011400-
WASHINGTON METRO

CITY           SKY/WX    TMP DP  RH WIND       PRES   REMARKS
WASHINGTON NAT MOSUNNY   73  68  84 S7        29.86F
DULLES         SUNNY     71  68  90 SW3       29.87S
ANDREWS AFB    MOSUNNY   72  70  95 SW3       29.86S
FT BELVOIR     PTSUNNY   70  68  92 S3        29.87S
QUANTICO       MOSUNNY   72  67  84 CALM      29.87F
COLLEGE PARK*  SUNNY     72  68  88 CALM      29.85F
LEESBURG*      SUNNY     72  70  94 W3        29.88S
MANASSAS*      PTSUNNY   70  70 100 SW5       29.87F
GAITHERSBURG*  SUNNY     72  66  83 W7        29.90S

$$

MDZ006>007-011-014-011400-
BALTIMORE METRO

CITY           SKY/WX    TMP DP  RH WIND       PRES   REMARKS
BWI AIRPORT    MOSUNNY   71  67  87 SW5       29.85S
MD SCIENCE CTR   N/A     73  66  78 MISG      29.87R
MARTIN STATE   SUNNY     73  70  88 S5        29.86S
ANNAPOLIS      MOSUNNY   72  66  81 VRB3      29.85S
FORT MEADE*    MOSUNNY   70  66  88 SW5       29.88S

$$

MDZ012-015-019>023-011400-
MARYLAND EASTERN SHORE

CITY           SKY/WX    TMP DP  RH WIND       PRES   REMARKS
OCEAN CITY     SUNNY     76  68  76 W8        29.87S
SALISBURY      MOSUNNY   75  69  81 SW9       29.86F
BAY BRIDGE AP*   N/A     72  68  88 SW7       29.86S
CAMBRIDGE*     PTSUNNY   73  68  83 SW7       29.87R
EASTON*        MOSUNNY   75  73  94 SW7       29.89F

$$

MDZ017>025-011400-
SOUTHERN MARYLAND

CITY           SKY/WX    TMP DP  RH WIND       PRES   REMARKS
PATUXENT RIVER MOSUNNY   74  69  85 W8        29.87S
ST INIGOES     PTSUNNY   74  68  81 W9        29.87S
LEONARDTOWN*   MOSUNNY   72  66  83 W7        29.89S

$$

MDZ003>005-011400-
NORTH CENTRAL MARYLAND

CITY           SKY/WX    TMP DP  RH WIND       PRES   REMARKS
FREDERICK*     SUNNY     73  70  88 SW8       29.87F
HAGERSTOWN APT SUNNY     72  59  63 SW8       29.86S
WESTMINSTER*   SUNNY     70  63  78 W12G17    29.86S

$$

MDZ501>502-011400-
WESTERN MARYLAND

CITY           SKY/WX    TMP DP  RH WIND       PRES   REMARKS
OAKLAND*       FOG       55 N/A N/A SW7G16    29.95S VSB 1/4
CUMBERLAND*    SUNNY     72  61  68 SW5       29.91S

$$

VAZ025>031-011400-
SHENANDOAH VALLEY

CITY           SKY/WX    TMP DP  RH WIND       PRES   REMARKS
WINCHESTER*    SUNNY     73  63  68 SW6       29.88R
FRONT ROYAL*   FAIR      70  63  78 S6        29.87S
LURAY*         FAIR      72  64  78 SW5       29.91R
NEW MARKET*    FAIR      69  63  81 SW6       29.90S
STAUNTON*      SUNNY     71  62  72 S6        29.95S
WAYNESBORO*      N/A    N/A N/A N/A SW5       29.95

$$

WVZ021-048>050-054>055-011400-
EASTERN WEST VIRGINIA PANHANDLE

CITY           SKY/WX    TMP DP  RH WIND       PRES   REMARKS
MARTINSBURG    SUNNY     72  62  71 SW7       29.87S
PETERSBURG*    CLOUDY    68  55  64 S6        29.90F

$$

VAZ036>039-050-011400-
CENTRAL FOOTHILLS

CITY           SKY/WX    TMP DP  RH WIND       PRES   REMARKS
CHARLOTTESVILL SUNNY     72  59  63 VRB6      29.90S
CULPEPER*      SUNNY     70  67  90 SW3       29.89R
ORANGE*        SUNNY     72  66  83 S7        29.91R
GORDONSVILLE*  FAIR      72  64  78 S6        29.89S
WARRENTON*     FAIR      71  69  93 SW3       29.87S

$$

VAZ055>057-011400-
NORTH AND CENTRAL PIEDMONT

CITY           SKY/WX    TMP DP  RH WIND       PRES   REMARKS
FREDERICKSBRG* SUNNY     73  71  92 CALM      29.87S
STAFFORD*      SUNNY     71  67  87 CALM      29.91F

$$

NCZ024-NYZ072-PAZ021-071-VAZ022-071-011400-
OTHER REGIONAL OBSERVATIONS

CITY           SKY/WX    TMP DP  RH WIND       PRES   REMARKS
NEW YORK CITY  PTSUNNY   71  67  87 MISG      29.82R FOG
PHILADELPHIA   MOSUNNY   73  66  78 SW10      29.83R
PITTSBURGH     PTSUNNY   64  60  87 SW8       29.87S FOG
ROANOKE        MOSUNNY   69  62  78 W10       29.98F
RICHMOND       PTSUNNY   75  67  76 W8        29.90R
RALEIGH        PTSUNNY   74  69  85 SW7       29.97R

$$

ANZ530>537-011400-
MARINE OBSERVATIONS

STATION/POSITION TIME  TEMP    WIND        PRES
                       AIR SEA DIR/SP/G
                 (UTC) (F)     (DEG/KT/KT) (MB)
THOMAS PT LIGHT  NOT AVBL
BALT KEY BRIDGE  1200   69     210/  8/  9 1010.4R
COVE POINT       1200   71     290/  9/ 15 1011.9R
LEWISETTA        1200   71 79  250/  8/ 10 1011.2S
SOLOMONS ISLAND  1200      79                N/A
PINEY POINT      1200          290/ 11/ 12   N/A

$$




USA.gov is the U.S. government's official web portal to all federal, state and local government web resources and services.